INTELSAT 902 (IS-902)

Last updated on Sat Aug 15 2026 00:02:57 GMT+0000 (Coordinated Universal Time)

1 26900U 01039A 26226.48667573 -.00000299 00000+0 00000+0 0 9993 2 26900 6.2589 71.0503 0004158 72.7683 304.1946 1.00272224 91283
UTC large
Height (km)
Speed (km/s)
/
Latitude / Longitude
Inclination (degrees)
Orbital Period (minutes)
Azimuth
Elevation
Range (km)
Doppler Factor

Next 0 passes for location: London (51.5072 / 0.1276)

No passes found over London.
INTELSAT 902 (IS-902)